• In Hungary
  • List of Countries
  • For 7 days
  • Water Temperature
  • Satellite Maps
  • Weather Map
  • News
  • Weather Widgets
  • user-avatar
    Login

    Hourly Weather Puerto Barrios

    Today, 16 December, Saturday

    Time Temperature Precipitation Wind Pressure Humidity
    00:00 +24°C° 0.3 mm 1 mps 752 mmHg 96%
    01:00 +24°C° 0.6 mm 1 mps 752 mmHg 96%
    02:00 +24°C° 0.6 mm 1 mps 752 mmHg 96%
    03:00 +24°C° 0.6 mm 1 mps 752 mmHg 96%
    04:00 +24°C° 0.4 mm 1 mps 752 mmHg 96%
    05:00 +24°C° 0.4 mm 1 mps 752 mmHg 97%
    06:00 +23°C° 0.4 mm 1 mps 752 mmHg 97%
    07:00 +25°C° 0.1 mm 1 mps 753 mmHg 91%
    08:00 +26°C° 0.1 mm 1 mps 753 mmHg 86%
    09:00 +27°C° 0.1 mm 1 mps 753 mmHg 80%
    10:00 +29°C° 0.1 mm 1 mps 753 mmHg 73%
    11:00 +30°C° 0.1 mm 1 mps 752 mmHg 67%
    12:00 +32°C° 0.1 mm 1 mps 752 mmHg 60%
    13:00 +31°C° 0 mm 2 mps 751 mmHg 61%
    14:00 +31°C° 0 mm 2 mps 751 mmHg 62%
    15:00 +31°C° 0 mm 2 mps 750 mmHg 63%
    16:00 +29°C° 0 mm 2 mps 750 mmHg 71%
    17:00 +27°C° 0 mm 2 mps 750 mmHg 80%
    18:00 +26°C° 0 mm 2 mps 751 mmHg 88%
    19:00 +25°C° 0.1 mm 2 mps 751 mmHg 90%
    20:00 +25°C° 0.1 mm 2 mps 752 mmHg 93%
    21:00 +24°C° 0.1 mm 2 mps 752 mmHg 95%
    22:00 +24°C° 0.1 mm 2 mps 752 mmHg 95%
    23:00 +24°C° 0.1 mm 2 mps 753 mmHg 96%

    Tomorrow, 17 December, Sunday

    Time Temperature Precipitation Wind Pressure Humidity
    00:00 +24°C° 0.1 mm 2 mps 753 mmHg 96%
    01:00 +24°C° 0.1 mm 2 mps 753 mmHg 97%
    02:00 +24°C° 0.1 mm 2 mps 752 mmHg 97%
    03:00 +24°C° 0.1 mm 1 mps 752 mmHg 97%
    04:00 +24°C° 0.1 mm 1 mps 752 mmHg 97%
    05:00 +23°C° 0.1 mm 1 mps 753 mmHg 97%
    06:00 +23°C° 0.1 mm 1 mps 753 mmHg 97%
    07:00 +25°C° 0 mm 1 mps 753 mmHg 90%
    08:00 +27°C° 0 mm 1 mps 754 mmHg 82%
    09:00 +28°C° 0 mm 1 mps 754 mmHg 75%
    10:00 +29°C° 0 mm 2 mps 754 mmHg 67%
    11:00 +31°C° 0 mm 2 mps 753 mmHg 58%
    12:00 +32°C° 0 mm 2 mps 753 mmHg 50%
    13:00 +33°C° 0 mm 3 mps 752 mmHg 53%
    14:00 +31°C° 0 mm 3 mps 751 mmHg 55%
    15:00 +31°C° 0 mm 3 mps 751 mmHg 58%
    16:00 +29°C° 0 mm 3 mps 751 mmHg 67%
    17:00 +27°C° 0 mm 3 mps 751 mmHg 77%
    18:00 +26°C° 0 mm 3 mps 751 mmHg 86%
    19:00 +25°C° 0.2 mm 3 mps 752 mmHg 89%
    20:00 +25°C° 0.2 mm 3 mps 752 mmHg 93%
    21:00 +24°C° 0.2 mm 2 mps 753 mmHg 96%
    22:00 +24°C° 0.1 mm 2 mps 753 mmHg 96%
    23:00 +24°C° 0.1 mm 2 mps 753 mmHg 96%

    Day after tomorrow, 18 December, Monday

    Time Temperature Precipitation Wind Pressure Humidity
    00:00 +24°C° 0.1 mm 2 mps 753 mmHg 96%
    01:00 +24°C° 0.1 mm 2 mps 752 mmHg 96%
    02:00 +24°C° 0.1 mm 2 mps 752 mmHg 97%
    03:00 +24°C° 0.1 mm 2 mps 752 mmHg 97%
    04:00 +24°C° 0.1 mm 1 mps 752 mmHg 96%
    05:00 +24°C° 0.1 mm 1 mps 752 mmHg 96%
    06:00 +24°C° 0.1 mm 1 mps 752 mmHg 96%
    07:00 +25°C° 0.1 mm 1 mps 753 mmHg 90%
    08:00 +27°C° 0.1 mm 1 mps 753 mmHg 83%
    09:00 +29°C° 0.1 mm 1 mps 754 mmHg 77%
    10:00 +30°C° 0.1 mm 1 mps 753 mmHg 71%
    11:00 +31°C° 0.1 mm 1 mps 753 mmHg 65%
    12:00 +32°C° 0.1 mm 2 mps 753 mmHg 60%
    13:00 +31°C° 0.1 mm 2 mps 752 mmHg 63%
    14:00 +31°C° 0.1 mm 3 mps 751 mmHg 65%
    15:00 +30°C° 0.1 mm 3 mps 750 mmHg 68%
    16:00 +29°C° 0.1 mm 3 mps 751 mmHg 76%
    17:00 +27°C° 0.1 mm 3 mps 751 mmHg 84%
    18:00 +26°C° 0.1 mm 3 mps 751 mmHg 92%
    19:00 +26°C° 0.3 mm 3 mps 752 mmHg 94%
    20:00 +25°C° 0.3 mm 3 mps 753 mmHg 95%
    21:00 +25°C° 0.3 mm 3 mps 753 mmHg 97%
    22:00 +25°C° 0.5 mm 3 mps 753 mmHg 97%
    23:00 +25°C° 0.5 mm 3 mps 753 mmHg 97%

    19 December, Tuesday

    Time Temperature Precipitation Wind Pressure Humidity
    00:00 +24°C° 0.5 mm 3 mps 753 mmHg 97%
    01:00 +24°C° 0.2 mm 3 mps 753 mmHg 98%
    02:00 +24°C° 0.2 mm 2 mps 752 mmHg 98%
    03:00 +24°C° 0.2 mm 2 mps 752 mmHg 98%
    04:00 +24°C° 0.1 mm 2 mps 752 mmHg 98%
    05:00 +24°C° 0.1 mm 1 mps 752 mmHg 98%
    06:00 +24°C° 0.1 mm 1 mps 753 mmHg 98%
    07:00 +25°C° 0.2 mm 1 mps 753 mmHg 91%
    08:00 +27°C° 0.2 mm 1 mps 753 mmHg 85%
    09:00 +28°C° 0.2 mm 1 mps 754 mmHg 79%
    10:00 +30°C° 0.1 mm 1 mps 753 mmHg 73%
    11:00 +31°C° 0.1 mm 2 mps 753 mmHg 67%
    12:00 +32°C° 0.1 mm 2 mps 752 mmHg 62%
    13:00 +31°C° 0.7 mm 2 mps 752 mmHg 65%
    14:00 +31°C° 0.7 mm 3 mps 751 mmHg 69%
    15:00 +30°C° 0.7 mm 3 mps 750 mmHg 72%
    16:00 +29°C° 0.5 mm 3 mps 750 mmHg 79%
    17:00 +27°C° 0.5 mm 3 mps 751 mmHg 85%
    18:00 +26°C° 0.5 mm 3 mps 751 mmHg 91%
    19:00 +25°C° 0.3 mm 2 mps 752 mmHg 93%
    20:00 +25°C° 0.3 mm 2 mps 752 mmHg 95%
    21:00 +25°C° 0.3 mm 2 mps 753 mmHg 96%
    22:00 +25°C° 0.4 mm 2 mps 753 mmHg 96%
    23:00 +25°C° 0.4 mm 2 mps 752 mmHg 96%

    20 December, Wednesday

    Time Temperature Precipitation Wind Pressure Humidity
    00:00 +25°C° 0.4 mm 2 mps 752 mmHg 96%
    01:00 +25°C° 0.4 mm 2 mps 752 mmHg 97%
    02:00 +25°C° 0.4 mm 2 mps 752 mmHg 97%
    03:00 +25°C° 0.4 mm 2 mps 751 mmHg 97%
    04:00 +24°C° 0.2 mm 1 mps 752 mmHg 97%
    05:00 +24°C° 0.2 mm 1 mps 752 mmHg 97%
    06:00 +24°C° 0.2 mm 1 mps 752 mmHg 97%
    07:00 +25°C° 0.3 mm 1 mps 752 mmHg 92%
    08:00 +27°C° 0.3 mm 1 mps 753 mmHg 87%
    09:00 +28°C° 0.3 mm 1 mps 753 mmHg 82%
    10:00 +29°C° 0.1 mm 2 mps 753 mmHg 75%
    11:00 +31°C° 0.1 mm 2 mps 752 mmHg 68%
    12:00 +32°C° 0.1 mm 2 mps 751 mmHg 61%
    13:00 +31°C° 0 mm 3 mps 751 mmHg 63%
    14:00 +31°C° 0 mm 3 mps 750 mmHg 66%
    15:00 +31°C° 0 mm 3 mps 749 mmHg 68%
    16:00 +29°C° 0 mm 3 mps 750 mmHg 75%
    17:00 +27°C° 0 mm 3 mps 750 mmHg 83%
    18:00 +26°C° 0 mm 3 mps 751 mmHg 90%
    19:00 +25°C° 0.1 mm 2 mps 751 mmHg 92%
    20:00 +25°C° 0.1 mm 2 mps 751 mmHg 94%
    21:00 +25°C° 0.1 mm 2 mps 752 mmHg 96%
    22:00 +24°C° 0.3 mm 2 mps 752 mmHg 96%
    23:00 +24°C° 0.3 mm 1 mps 751 mmHg 96%

    21 December, Thursday

    Time Temperature Precipitation Wind Pressure Humidity
    00:00 +24°C° 0.3 mm 1 mps 751 mmHg 96%
    01:00 +24°C° 0.1 mm 1 mps 751 mmHg 97%
    02:00 +24°C° 0.1 mm 1 mps 751 mmHg 97%
    03:00 +24°C° 0.1 mm 1 mps 750 mmHg 97%
    04:00 +24°C° 0.2 mm 1 mps 751 mmHg 97%
    05:00 +24°C° 0.2 mm 1 mps 751 mmHg 96%
    06:00 +24°C° 0.2 mm 1 mps 751 mmHg 96%
    07:00 +25°C° 0.1 mm 1 mps 752 mmHg 90%
    08:00 +27°C° 0.1 mm 1 mps 752 mmHg 84%
    09:00 +28°C° 0.1 mm 1 mps 753 mmHg 79%
    10:00 +29°C° 0 mm 1 mps 752 mmHg 73%
    11:00 +30°C° 0 mm 1 mps 751 mmHg 66%
    12:00 +32°C° 0 mm 2 mps 751 mmHg 60%
    13:00 +31°C° 0 mm 2 mps 750 mmHg 62%
    14:00 +31°C° 0 mm 3 mps 750 mmHg 63%
    15:00 +31°C° 0 mm 3 mps 749 mmHg 65%
    16:00 +29°C° 0 mm 3 mps 749 mmHg 73%
    17:00 +28°C° 0 mm 3 mps 750 mmHg 82%
    18:00 +26°C° 0 mm 3 mps 750 mmHg 90%
    19:00 +26°C° 0.1 mm 3 mps 751 mmHg 92%
    20:00 +25°C° 0.1 mm 3 mps 751 mmHg 94%
    21:00 +25°C° 0.1 mm 2 mps 751 mmHg 96%
    22:00 +24°C° 0.2 mm 2 mps 751 mmHg 97%
    23:00 +24°C° 0.2 mm 2 mps 751 mmHg 97%
    Show more